SCP
0 -0 -0 -0 -0 -0 -0 -0 -0 -0 -0 0 0 0 0 0 0 0 0 0 0 0 0 0 0 0 0 0 0 0 0 0 0 0 0 0 0 0 0 0 0 0 0
-0 -0 -0 -0 -0 -0 -0 0 0 0 0 0 0 0 0 0 0 0 0 0 0 0 0 0 0 0 0 0 0 0 0 1 0 0 0 0 0 0 0 0 0 0 0
-0 -0 -0 -0 -0 -0 -0 -0 0 0 0 0 0 0 0 0 0 0 0 0 0 0 0 0 0 0 0 0 0 0 0 0 1 0 0 0 0 0 0 0 0 0 0
0 -0 0 -0 -0 -0 0 0 0 0 0 0 0 0 0 0 0 0 0 0 0 0 0 0 0 0 0 0 1 1 0 0 1 1 0 0 0 0 0 0 0 0 0
-0 -0 0 0 0 0 0 0 0 0 0 0 0 0 0 0 0 0 0 0 0 0 0 0 0 0 0 0 0 1 1 1 0 0 0 1 1 0 0 0 0 0 0
0 0 0 0 0 0 0 0 0 0 0 0 0 0 0 0 0 0 0 0 0 0 0 0 0 0 0 0 0 0 1 1 0 0 0 1 1 1 0 0 0 0 0
0 0 0 0 0 0 0 0 0 0 0 0 0 0 0 0 0 0 0 0 0 0 0 0 0 0 0 0 0 0 0 0 0 1 1 1 0 1 0 0 0 0 0
0 0 0 0 0 0 0 0 0 0 0 0 0 0 0 0 0 0 0 0 0 0 0 0 0 0 0 0 0 0 0 0 0 0 0 0 0 0 0 0 0 0 0
0 0 0 0 0 0 0 0 0 0 0 0 0 0 0 0 0 0 0 0 0 0 0 0 0 0 0 0 0 0 0 0 0 1 0 1 0 0 0 0 0 0 0
0 0 0 0 0 0 0 0 0 0 0 0 0 0 0 0 0 0 0 0 0 0 0 0 0 0 0 0 0 0 0 0 0 0 1 1 0 0 0 0 0 1 0
0 0 0 0 0 0 0 0 0 0 0 0 0 0 0 0 0 0 0 0 0 0 0 0 0 0 0 0 0 0 0 0 1 1 1 1 1 0 0 0 0 0 0
0 0 0 0 0 0 0 0 0 0 0 0 0 0 0 0 0 0 0 0 0 0 0 0 0 0 0 0 0 0 0 0 0 1 1 0 0 0 0 0 0 0 0
0 0 0 0 0 0 0 0 0 0 0 0 0 0 0 0 0 0 0 0 0 0 0 0 0 0 0 0 0 0 0 0 0 1 1 0 0 0 0 0 0 0 0
0 0 0 0 0 0 0 0 0 0 0 0 0 0 0 0 0 0 0 0 0 0 0 0 0 0 0 0 0 0 0 0 0 1 1 0 0 0 0 0 0 0 0
0 0 0 0 0 0 0 0 0 0 0 0 0 0 0 0 0 0 0 0 0 0 0 0 0 0 0 0 0 0 -0 0 0 0 0 0 0 0 0 0 0 0 0
-0 0 0 0 0 0 0 0 0 0 0 0 0 0 0 0 0 0 0 0 0 0 0 0 0 0 0 0 0 -0 0 0 0 0 0 0 0 0 0 0 0 -0 0
0 0 0 0 0 0 0 0 0 0 0 0 0 0 0 0 0 0 0 0 0 0 0 0 -0 -0 0 0 -0 -0 0 0 0 0 0 0 0 0 0 0 0 0 -0
0 0 0 0 0 0 0 0 0 0 0 0 0 0 0 0 0 0 0 0 0 0 0 -0 -0 -0 0 0 0 0 0 0 0 0 0 0 0 0 0 0 0 0 0
0 0 0 0 0 0 0 0 0 0 0 0 0 0 0 0 0 0 0 0 0 0 0 -0 -0 -0 0 0 0 0 0 0 0 0 0 0 0 0 0 0 0 0 0
0 0 0 0 0 0 0 0 0 0 0 0 0 0 0 0 0 0 0 0 0 0 -0 -0 -0 -0 0 0 -0 -0 0 0 0 0 0 0 0 0 0 0 -0 0 0
0 0 0 0 0 0 0 0 0 0 0 0 0 0 0 0 0 0 0 0 0 0 0 -0 -0 -0 0 0 0 -0 -0 0 0 0 0 0 0 0 0 0 0 0 0
0 0 0 0 0 0 0 0 0 0 0 0 0 0 0 0 0 0 0 0 0 0 0 -0 -0 -0 -0 -0 -0 0 0 0 0 0 0 0 0 0 0 0 0 0 0
0 0 0 0 0 0 0 0 0 0 0 0 0 0 0 0 0 0 0 0 0 0 0 -0 -0 -0 -0 -0 -0 0 0 0 0 0 -0 0 0 0 0 0 0 0 0
0 0 0 0 0 0 0 0 0 0 0 0 0 0 0 0 0 0 -0 0 0 0 0 0 -0 -0 -0 -0 -0 0 -0 -0 -0 0 -0 0 0 0 0 0 0 0 0
0 0 0 0 0 0 0 0 0 0 0 0 0 0 0 0 0 0 -0 0 0 -0 0 0 0 0 -0 -0 -0 -0 0 -0 -0 0 0 0 0 0 0 0 0 0 0
0 0 0 0 0 0 0 0 0 0 0 0 0 0 0 0 0 0 0 0 0 0 0 0 0 0 0 -0 -0 -0 -0 0 -0 -0 0 0 0 0 0 0 0 0 0
Wind_Speed_500mb
37 29 35 34 28 25 21 21 21 20 14 11 12 13 14 16 19 20 22 24 26 27 27 27 26 25 26 25 28 32 33 31 31 31 28 23 20 21 20 24 23 20 22
34 33 33 29 26 23 27 25 18 15 14 15 16 17 18 21 23 26 29 30 30 32 33 34 34 32 29 30 30 32 35 34 36 37 32 29 25 25 24 30 26 23 22
36 35 35 32 31 31 29 19 18 17 16 16 18 20 23 26 29 32 35 38 38 39 40 41 40 37 37 36 35 32 36 39 41 42 34 33 28 28 30 30 27 27 25
35 32 34 28 24 18 18 19 18 17 18 18 21 24 28 32 34 37 40 42 43 44 47 48 49 47 47 47 40 39 37 40 47 47 41 32 31 32 35 34 30 27 27
35 31 27 20 18 17 19 18 18 19 20 21 24 29 32 35 37 38 40 41 42 43 46 49 52 55 57 55 50 45 44 45 51 53 52 42 41 39 39 37 31 29 31
34 29 23 20 17 17 17 17 19 20 22 25 28 31 32 35 38 39 41 44 46 48 50 52 54 56 60 65 60 52 47 48 52 56 58 55 53 47 46 42 36 34 36
29 28 25 22 18 16 16 18 18 21 24 27 28 30 33 36 39 42 45 49 53 56 57 59 61 62 62 62 65 58 49 52 56 57 60 60 58 54 54 47 42 38 40
26 26 25 21 18 16 17 19 20 23 25 26 28 31 35 38 42 46 50 54 55 55 56 59 61 64 66 64 64 66 61 57 58 64 63 63 63 56 52 49 47 45 46
29 28 26 22 20 18 18 20 21 23 24 26 29 32 36 40 44 49 51 48 47 47 49 48 47 52 56 62 65 65 66 66 62 57 67 65 65 63 59 56 52 50 49
31 30 27 23 20 18 18 19 20 22 24 24 30 35 40 44 48 49 45 45 44 41 36 32 30 31 31 35 45 64 65 71 68 66 59 68 59 56 65 57 54 54 53
35 33 29 24 21 20 19 19 20 21 23 27 33 38 44 46 45 43 43 40 37 33 35 37 35 32 37 36 38 39 51 54 75 66 60 69 69 61 63 56 61 62 59
36 33 30 26 23 22 19 19 20 21 25 29 35 41 44 43 43 42 39 33 30 32 32 32 35 30 24 22 22 28 33 39 53 64 60 68 72 67 62 61 60 66 66
36 32 29 26 26 23 20 20 20 23 26 33 37 42 42 40 41 37 30 24 26 28 28 26 21 23 25 26 28 27 23 29 47 55 64 63 65 74 79 69 60 73 73
36 34 31 30 28 24 21 21 21 24 28 34 39 41 38 38 35 28 21 19 21 25 18 20 28 32 26 23 18 14 10 17 32 41 52 64 50 51 63 79 68 49 48
40 37 35 34 31 26 24 23 22 24 29 34 39 37 35 31 26 24 19 15 17 15 15 23 24 21 17 18 16 5 6 12 19 26 42 43 37 45 53 46 59 42 39
41 41 39 35 32 27 25 24 22 24 30 34 35 32 32 25 23 20 16 11 12 9 16 15 18 13 17 14 16 11 12 11 9 8 18 22 28 45 51 48 46 36 66
38 42 41 36 34 29 27 24 23 24 29 33 30 30 26 24 22 20 11 6 6 9 7 11 4 10 23 23 19 13 7 13 14 16 22 16 13 34 38 17 26 41 82
40 41 40 37 34 30 28 24 22 23 27 27 28 26 23 20 16 11 3 10 10 7 9 8 5 16 21 19 20 9 11 13 18 27 33 17 8 12 31 38 25 45 63
40 42 40 38 34 30 27 22 21 22 23 23 25 22 19 13 7 8 17 17 12 12 10 11 14 18 17 17 20 7 8 8 13 16 23 16 25 15 29 25 30 40 70
39 40 39 38 33 29 24 20 19 20 20 22 20 17 11 5 11 17 16 13 14 11 12 4 12 22 23 26 29 18 15 5 8 14 20 17 20 19 25 31 42 47 58
35 37 38 36 30 24 19 17 17 18 17 21 15 10 5 11 18 17 13 15 14 16 11 4 13 20 30 26 29 27 29 21 19 18 23 26 23 23 22 18 40 34 68
29 32 34 30 24 20 16 16 16 15 14 15 10 4 7 16 15 13 16 19 15 15 10 20 13 18 18 10 17 19 13 34 28 27 25 29 30 26 29 30 57 49 78
27 32 31 26 20 14 14 14 14 12 14 8 5 2 11 17 15 16 15 17 14 14 17 22 12 10 7 12 6 8 7 11 42 44 40 39 32 38 33 46 47 65 58
30 32 29 23 16 11 12 12 13 11 11 5 1 3 15 18 14 6 18 16 15 16 19 18 14 11 7 8 11 7 9 25 16 26 40 45 53 49 57 60 55 51 45
28 28 25 17 9 8 10 10 11 11 9 3 2 6 17 19 13 6 11 15 11 14 18 18 14 11 9 3 15 16 24 17 38 31 36 40 49 53 50 46 47 40 41
26 21 15 8 4 7 11 10 8 10 8 3 4 6 15 19 14 5 4 17 15 12 15 22 20 14 12 10 6 9 10 6 11 50 52 42 48 48 49 48 42 37 35
Wind_Direction_500mb
186 189 189 191 190 193 200 205 204 212 223 228 239 252 261 269 270 273 274 275 277 277 275 273 271 269 272 265 254 247 238 234 220 211 211 203 202 195 198 193 172 157 156
183 181 187 178 185 191 195 206 215 235 243 250 254 258 264 268 270 273 275 276 276 272 269 268 267 266 268 267 261 249 238 233 217 214 218 211 205 203 208 188 173 181 165
180 182 173 175 181 195 214 219 226 239 250 255 261 269 273 276 280 282 281 280 277 272 268 264 261 262 257 259 257 253 240 232 218 216 219 206 201 206 197 187 180 177 171
183 186 183 185 197 211 218 222 232 248 258 262 268 273 280 284 284 284 283 281 279 275 272 267 263 259 255 252 253 250 242 233 221 215 214 202 200 205 200 193 187 186 183
187 188 191 196 204 214 216 225 239 253 263 270 277 282 285 286 286 285 284 283 281 277 273 270 266 261 257 255 249 248 244 234 223 217 215 206 207 204 206 200 196 190 185
192 193 197 205 212 219 224 233 245 256 267 276 281 284 287 289 289 290 289 288 286 282 278 274 270 264 258 254 251 244 243 237 226 220 216 211 209 208 205 203 196 193 189
195 200 205 211 220 220 230 241 252 267 275 281 286 288 290 291 293 294 295 293 288 284 282 277 272 267 263 259 256 247 245 236 230 219 217 216 219 213 203 202 197 197 194
202 207 211 216 222 225 233 246 259 269 277 285 290 294 296 298 299 299 295 290 289 288 285 281 277 270 264 258 253 249 241 239 231 222 219 217 222 219 209 201 201 197 193
204 208 213 217 220 228 240 253 266 277 285 290 293 295 299 301 302 300 297 299 297 297 293 286 277 272 267 261 255 250 243 239 238 228 220 221 221 214 210 205 202 197 193
211 213 217 221 225 233 246 259 274 282 287 295 302 305 308 310 310 307 306 304 305 307 311 306 303 291 287 276 262 254 245 235 238 236 218 225 227 216 211 209 204 201 195
218 220 223 228 232 238 253 270 281 289 299 309 309 312 314 314 310 307 303 303 310 314 318 314 316 308 301 294 273 261 248 237 231 238 227 224 222 218 217 216 212 203 196
228 227 228 230 233 241 257 273 284 294 305 309 312 315 315 315 309 307 303 308 313 318 319 321 320 323 320 301 287 287 266 243 229 231 235 233 231 219 221 220 218 205 193
235 232 233 233 231 242 257 272 281 293 308 312 317 318 318 315 313 314 313 315 320 325 333 339 348 338 322 306 296 284 260 249 228 219 229 235 240 231 227 231 221 216 173
239 238 233 233 234 243 256 270 279 294 311 316 319 319 319 319 322 324 319 316 326 338 357 358 346 340 328 320 314 287 242 232 217 216 230 232 238 231 227 212 219 215 178
238 237 236 234 233 243 253 266 277 298 312 316 319 319 322 324 330 334 330 326 337 348 15 360 2 16 17 33 35 60 152 183 196 213 234 231 223 223 220 214 206 186 197
236 234 236 235 235 243 255 266 277 300 311 317 320 322 321 326 331 331 336 342 350 62 16 27 35 32 54 67 71 69 113 143 164 196 182 203 217 208 217 219 193 200 184
244 236 236 234 235 242 250 260 276 300 311 319 321 322 322 327 327 326 329 352 97 72 48 49 26 72 68 67 59 68 107 159 148 142 135 116 196 220 215 284 214 210 205
239 234 231 230 231 238 247 256 277 300 314 319 324 323 324 332 334 329 359 117 95 69 101 117 97 91 78 74 81 91 94 142 145 150 154 160 145 232 251 221 217 219 192
237 225 222 223 224 234 241 250 280 300 315 321 329 328 329 342 7 85 117 122 105 82 104 79 115 93 84 82 89 89 76 128 172 167 175 171 169 231 216 210 211 228 176
224 216 213 214 218 226 233 257 284 304 316 327 332 333 344 30 115 116 121 113 131 99 118 109 115 111 99 95 66 62 39 101 104 161 168 162 162 190 215 210 215 201 174
205 205 205 205 207 217 232 266 288 307 319 328 334 340 32 119 127 123 112 119 142 129 137 179 151 116 111 90 76 68 76 86 92 113 138 145 154 167 168 196 145 172 181
187 189 193 196 197 209 238 267 291 307 324 330 336 3 119 137 132 134 124 133 135 138 136 130 128 145 121 102 117 54 48 103 113 121 135 140 148 157 169 140 160 151 147
167 171 177 181 189 218 258 283 301 312 330 342 347 74 150 149 134 140 139 146 144 150 148 151 159 157 158 138 43 61 5 103 110 123 126 126 129 153 163 158 148 143 146
154 160 167 176 191 229 269 296 306 310 321 315 18 150 160 160 154 159 167 171 179 169 164 172 192 206 199 149 5 21 105 138 123 108 122 134 138 134 131 138 148 150 150
149 158 165 176 205 265 285 302 306 307 314 305 141 151 168 167 157 120 152 180 182 189 173 172 165 176 193 193 15 27 139 144 147 148 130 132 140 142 146 149 149 149 146
147 156 165 181 256 293 296 309 302 299 304 236 153 153 178 181 181 196 223 186 189 190 188 175 179 192 211 213 12 86 139 153 195 161 147 141 143 146 153 151 152 153 157
Wind_Speed_850mb
37 29 35 34 28 25 21 21 21 20 14 11 12 13 14 16 19 20 22 24 26 27 27 27 26 25 26 25 28 32 33 31 31 31 28 23 20 21 20 24 23 20 22
34 33 33 29 26 23 27 25 18 15 14 15 16 17 18 21 23 26 29 30 30 32 33 34 34 32 29 30 30 32 35 34 36 37 32 29 25 25 24 30 26 23 22
36 35 35 32 31 31 29 19 18 17 16 16 18 20 23 26 29 32 35 38 38 39 40 41 40 37 37 36 35 32 36 39 41 42 34 33 28 28 30 30 27 27 25
35 32 34 28 24 18 18 19 18 17 18 18 21 24 28 32 34 37 40 42 43 44 47 48 49 47 47 47 40 39 37 40 47 47 41 32 31 32 35 34 30 27 27
35 31 27 20 18 17 19 18 18 19 20 21 24 29 32 35 37 38 40 41 42 43 46 49 52 55 57 55 50 45 44 45 51 53 52 42 41 39 39 37 31 29 31
34 29 23 20 17 17 17 17 19 20 22 25 28 31 32 35 38 39 41 44 46 48 50 52 54 56 60 65 60 52 47 48 52 56 58 55 53 47 46 42 36 34 36
29 28 25 22 18 16 16 18 18 21 24 27 28 30 33 36 39 42 45 49 53 56 57 59 61 62 62 62 65 58 49 52 56 57 60 60 58 54 54 47 42 38 40
26 26 25 21 18 16 17 19 20 23 25 26 28 31 35 38 42 46 50 54 55 55 56 59 61 64 66 64 64 66 61 57 58 64 63 63 63 56 52 49 47 45 46
29 28 26 22 20 18 18 20 21 23 24 26 29 32 36 40 44 49 51 48 47 47 49 48 47 52 56 62 65 65 66 66 62 57 67 65 65 63 59 56 52 50 49
31 30 27 23 20 18 18 19 20 22 24 24 30 35 40 44 48 49 45 45 44 41 36 32 30 31 31 35 45 64 65 71 68 66 59 68 59 56 65 57 54 54 53
35 33 29 24 21 20 19 19 20 21 23 27 33 38 44 46 45 43 43 40 37 33 35 37 35 32 37 36 38 39 51 54 75 66 60 69 69 61 63 56 61 62 59
36 33 30 26 23 22 19 19 20 21 25 29 35 41 44 43 43 42 39 33 30 32 32 32 35 30 24 22 22 28 33 39 53 64 60 68 72 67 62 61 60 66 66
36 32 29 26 26 23 20 20 20 23 26 33 37 42 42 40 41 37 30 24 26 28 28 26 21 23 25 26 28 27 23 29 47 55 64 63 65 74 79 69 60 73 73
36 34 31 30 28 24 21 21 21 24 28 34 39 41 38 38 35 28 21 19 21 25 18 20 28 32 26 23 18 14 10 17 32 41 52 64 50 51 63 79 68 49 48
40 37 35 34 31 26 24 23 22 24 29 34 39 37 35 31 26 24 19 15 17 15 15 23 24 21 17 18 16 5 6 12 19 26 42 43 37 45 53 46 59 42 39
41 41 39 35 32 27 25 24 22 24 30 34 35 32 32 25 23 20 16 11 12 9 16 15 18 13 17 14 16 11 12 11 9 8 18 22 28 45 51 48 46 36 66
38 42 41 36 34 29 27 24 23 24 29 33 30 30 26 24 22 20 11 6 6 9 7 11 4 10 23 23 19 13 7 13 14 16 22 16 13 34 38 17 26 41 82
40 41 40 37 34 30 28 24 22 23 27 27 28 26 23 20 16 11 3 10 10 7 9 8 5 16 21 19 20 9 11 13 18 27 33 17 8 12 31 38 25 45 63
40 42 40 38 34 30 27 22 21 22 23 23 25 22 19 13 7 8 17 17 12 12 10 11 14 18 17 17 20 7 8 8 13 16 23 16 25 15 29 25 30 40 70
39 40 39 38 33 29 24 20 19 20 20 22 20 17 11 5 11 17 16 13 14 11 12 4 12 22 23 26 29 18 15 5 8 14 20 17 20 19 25 31 42 47 58
35 37 38 36 30 24 19 17 17 18 17 21 15 10 5 11 18 17 13 15 14 16 11 4 13 20 30 26 29 27 29 21 19 18 23 26 23 23 22 18 40 34 68
29 32 34 30 24 20 16 16 16 15 14 15 10 4 7 16 15 13 16 19 15 15 10 20 13 18 18 10 17 19 13 34 28 27 25 29 30 26 29 30 57 49 78
27 32 31 26 20 14 14 14 14 12 14 8 5 2 11 17 15 16 15 17 14 14 17 22 12 10 7 12 6 8 7 11 42 44 40 39 32 38 33 46 47 65 58
30 32 29 23 16 11 12 12 13 11 11 5 1 3 15 18 14 6 18 16 15 16 19 18 14 11 7 8 11 7 9 25 16 26 40 45 53 49 57 60 55 51 45
28 28 25 17 9 8 10 10 11 11 9 3 2 6 17 19 13 6 11 15 11 14 18 18 14 11 9 3 15 16 24 17 38 31 36 40 49 53 50 46 47 40 41
26 21 15 8 4 7 11 10 8 10 8 3 4 6 15 19 14 5 4 17 15 12 15 22 20 14 12 10 6 9 10 6 11 50 52 42 48 48 49 48 42 37 35
Wind_Direction_850mb
186 189 189 191 190 193 200 205 204 212 223 228 239 252 261 269 270 273 274 275 277 277 275 273 271 269 272 265 254 247 238 234 220 211 211 203 202 195 198 193 172 157 156
183 181 187 178 185 191 195 206 215 235 243 250 254 258 264 268 270 273 275 276 276 272 269 268 267 266 268 267 261 249 238 233 217 214 218 211 205 203 208 188 173 181 165
180 182 173 175 181 195 214 219 226 239 250 255 261 269 273 276 280 282 281 280 277 272 268 264 261 262 257 259 257 253 240 232 218 216 219 206 201 206 197 187 180 177 171
183 186 183 185 197 211 218 222 232 248 258 262 268 273 280 284 284 284 283 281 279 275 272 267 263 259 255 252 253 250 242 233 221 215 214 202 200 205 200 193 187 186 183
187 188 191 196 204 214 216 225 239 253 263 270 277 282 285 286 286 285 284 283 281 277 273 270 266 261 257 255 249 248 244 234 223 217 215 206 207 204 206 200 196 190 185
192 193 197 205 212 219 224 233 245 256 267 276 281 284 287 289 289 290 289 288 286 282 278 274 270 264 258 254 251 244 243 237 226 220 216 211 209 208 205 203 196 193 189
195 200 205 211 220 220 230 241 252 267 275 281 286 288 290 291 293 294 295 293 288 284 282 277 272 267 263 259 256 247 245 236 230 219 217 216 219 213 203 202 197 197 194
202 207 211 216 222 225 233 246 259 269 277 285 290 294 296 298 299 299 295 290 289 288 285 281 277 270 264 258 253 249 241 239 231 222 219 217 222 219 209 201 201 197 193
204 208 213 217 220 228 240 253 266 277 285 290 293 295 299 301 302 300 297 299 297 297 293 286 277 272 267 261 255 250 243 239 238 228 220 221 221 214 210 205 202 197 193
211 213 217 221 225 233 246 259 274 282 287 295 302 305 308 310 310 307 306 304 305 307 311 306 303 291 287 276 262 254 245 235 238 236 218 225 227 216 211 209 204 201 195
218 220 223 228 232 238 253 270 281 289 299 309 309 312 314 314 310 307 303 303 310 314 318 314 316 308 301 294 273 261 248 237 231 238 227 224 222 218 217 216 212 203 196
228 227 228 230 233 241 257 273 284 294 305 309 312 315 315 315 309 307 303 308 313 318 319 321 320 323 320 301 287 287 266 243 229 231 235 233 231 219 221 220 218 205 193
235 232 233 233 231 242 257 272 281 293 308 312 317 318 318 315 313 314 313 315 320 325 333 339 348 338 322 306 296 284 260 249 228 219 229 235 240 231 227 231 221 216 173
239 238 233 233 234 243 256 270 279 294 311 316 319 319 319 319 322 324 319 316 326 338 357 358 346 340 328 320 314 287 242 232 217 216 230 232 238 231 227 212 219 215 178
238 237 236 234 233 243 253 266 277 298 312 316 319 319 322 324 330 334 330 326 337 348 15 360 2 16 17 33 35 60 152 183 196 213 234 231 223 223 220 214 206 186 197
236 234 236 235 235 243 255 266 277 300 311 317 320 322 321 326 331 331 336 342 350 62 16 27 35 32 54 67 71 69 113 143 164 196 182 203 217 208 217 219 193 200 184
244 236 236 234 235 242 250 260 276 300 311 319 321 322 322 327 327 326 329 352 97 72 48 49 26 72 68 67 59 68 107 159 148 142 135 116 196 220 215 284 214 210 205
239 234 231 230 231 238 247 256 277 300 314 319 324 323 324 332 334 329 359 117 95 69 101 117 97 91 78 74 81 91 94 142 145 150 154 160 145 232 251 221 217 219 192
237 225 222 223 224 234 241 250 280 300 315 321 329 328 329 342 7 85 117 122 105 82 104 79 115 93 84 82 89 89 76 128 172 167 175 171 169 231 216 210 211 228 176
224 216 213 214 218 226 233 257 284 304 316 327 332 333 344 30 115 116 121 113 131 99 118 109 115 111 99 95 66 62 39 101 104 161 168 162 162 190 215 210 215 201 174
205 205 205 205 207 217 232 266 288 307 319 328 334 340 32 119 127 123 112 119 142 129 137 179 151 116 111 90 76 68 76 86 92 113 138 145 154 167 168 196 145 172 181
187 189 193 196 197 209 238 267 291 307 324 330 336 3 119 137 132 134 124 133 135 138 136 130 128 145 121 102 117 54 48 103 113 121 135 140 148 157 169 140 160 151 147
167 171 177 181 189 218 258 283 301 312 330 342 347 74 150 149 134 140 139 146 144 150 148 151 159 157 158 138 43 61 5 103 110 123 126 126 129 153 163 158 148 143 146
154 160 167 176 191 229 269 296 306 310 321 315 18 150 160 160 154 159 167 171 179 169 164 172 192 206 199 149 5 21 105 138 123 108 122 134 138 134 131 138 148 150 150
149 158 165 176 205 265 285 302 306 307 314 305 141 151 168 167 157 120 152 180 182 189 173 172 165 176 193 193 15 27 139 144 147 148 130 132 140 142 146 149 149 149 146
147 156 165 181 256 293 296 309 302 299 304 236 153 153 178 181 181 196 223 186 189 190 188 175 179 192 211 213 12 86 139 153 195 161 147 141 143 146 153 151 152 153 157